[[{"header":{"parameterUnit":"m.s-1","parameterCategory":1,"la1":30.2991,"la2":30.254,"lo1":-89.0895,"lo2":-89.0444,"dy":0.0017,"dx":0.0017,"nx":28,"ny":28,"refTime":"2024-10-07T09:00:00:Z","depth":0,"parameterNumber":2,"parameterNumberName":"U-component_of_WINDS"},"data":[0,0,0,0,0,0,0,0,0,0,0,0,0,0,0,0,0,0,0,0,0,0,0,0,0,0,0,0,0,0,0,0,0,0,0,0,0,0,0,0,0,0,0,0,0,0,0,0,0,0,0,0,0,0,0,0,0,0,-1.2085,-1.2085,0,-1.2134,-1.2135,-1.2135,-1.2095,-1.2093,-1.2091,-1.209,-1.2142,-1.2145,-1.2148,0,0,0,0,0,0,0,0,0,0,0,0,0,-1.1956,-1.1959,-1.2085,-1.2085,-1.2086,-1.2134,-1.2135,-1.2135,-1.2095,-1.2093,-1.2091,-1.2089,-1.2141,-1.2145,-1.2148,0,0,0,0,0,0,0,0,0,0,0,0,0,-1.2009,-1.1959,-1.2084,-1.2071,-1.2071,-1.2134,-1.2135,-1.2136,-1.2095,-1.2093,-1.209,-1.2088,-1.214,-1.2144,-1.2149,-1.2228,0,0,-1.2162,-1.2164,0,0,0,0,0,0,0,0,-1.2006,-1.2014,-1.2073,-1.2072,-1.2072,-1.2105,-1.2109,-1.2167,-1.2096,-1.2086,-1.2089,-1.2086,-1.2132,-1.2137,-1.2152,-1.223,-1.2233,-1.2163,-1.2166,-1.2168,-1.2169,0,0,0,0,0,0,0,-1.2003,-1.2012,-1.2104,-1.2074,-1.2073,-1.2063,-1.2068,-1.2119,-1.2123,-1.2087,-1.2084,-1.209,-1.2131,-1.2148,-1.2153,-1.2234,-1.2163,-1.2167,-1.2169,-1.2171,-1.2379,-1.2382,0,0,0,0,0,0,-1.2,-1.2009,-1.2103,-1.2106,-1.2032,-1.2068,-1.2073,-1.2097,-1.2122,-1.2124,-1.2092,-1.2088,-1.2141,-1.2148,-1.2155,-1.225,-1.2167,-1.2172,-1.2174,-1.2377,-1.238,-1.2383,0,0,0,0,0,0,-1.1998,-1.2009,-1.2101,-1.2057,-1.2067,-1.2073,-1.21,-1.21,-1.2116,-1.2126,-1.2127,-1.2109,-1.214,-1.2148,-1.221,-1.2251,-1.2174,-1.2178,-1.2373,-1.2378,-1.2382,-1.244,0,0,0,0,0,0,-1.1994,-1.2008,-1.2038,-1.2058,-1.207,-1.2155,-1.2103,-1.2102,-1.2124,-1.2119,-1.2142,-1.2143,-1.2138,-1.2203,-1.2214,-1.2256,-1.2181,-1.237,-1.2375,-1.238,-1.2435,-1.2446,-1.2456,0,0,0,0,0,-1.199,-1.2053,-1.204,-1.2052,-1.2108,-1.2158,-1.2165,-1.2157,-1.2127,-1.2158,-1.2164,-1.2143,-1.2244,-1.221,-1.2222,-1.2266,-1.2367,-1.2374,-1.238,-1.243,-1.2444,-1.2456,0,0,0,0,0,0,-1.204,-1.2056,-1.2041,-1.2113,-1.2134,-1.2151,-1.2189,-1.2172,-1.2203,-1.2197,-1.2187,-1.2192,-1.2257,-1.2267,-1.2229,-1.2343,-1.2301,-1.231,-1.2335,-1.2348,-1.2358,-1.2356,-1.2185,0,0,0,0,0,-1.2059,-1.2098,-1.211,-1.2172,-1.2183,-1.2184,-1.2206,-1.2198,-1.222,-1.2229,-1.224,-1.2262,-1.2299,-1.2324,-1.2358,-1.2435,-1.244,-1.2471,-1.2481,-1.249,-1.2498,-1.254,-1.2554,-1.2404,-1.2404,-1.2404,0,0,-1.21,-1.2113,-1.2138,-1.2182,-1.2198,-1.2239,-1.2192,-1.2237,-1.2268,-1.2236,-1.2295,-1.2303,-1.2328,-1.2397,-1.2429,-1.2408,-1.2541,-1.2498,-1.2505,-1.2509,-1.2548,-1.2562,-1.2575,-1.2408,-1.2407,-1.2407,0,0,-1.2195,-1.2208,-1.2262,-1.2278,-1.2302,-1.2302,-1.2315,-1.2334,-1.2338,-1.2397,-1.2373,-1.2409,-1.2473,-1.2491,-1.2509,-1.2609,-1.2591,-1.2621,-1.2677,-1.2717,-1.2729,-1.274,-1.2777,-1.279,-1.2629,-1.2629,-1.2629,0,-1.2243,-1.2303,-1.2292,-1.2339,-1.2359,-1.233,-1.2385,-1.2401,-1.2435,-1.245,-1.2425,-1.2505,-1.2519,-1.2593,-1.2617,-1.2632,-1.2647,-1.2619,-1.2728,-1.2739,-1.2748,-1.2783,-1.2797,-1.2633,-1.2632,-1.2632,-1.2632,0,-1.2361,-1.2403,-1.2444,-1.2477,-1.2501,-1.2552,-1.2548,-1.2574,-1.2564,-1.2567,-1.2627,-1.2642,-1.268,-1.2696,-1.2686,-1.2769,-1.2755,-1.2729,-1.2687,-1.2766,-1.2799,-1.2813,-1.2638,-1.2637,-1.2635,-1.2635,0,0,-1.2492,-1.2517,-1.2532,-1.2547,-1.257,-1.2603,-1.2651,-1.2687,-1.271,-1.2734,-1.2775,-1.2829,-1.2805,-1.2825,-1.2817,-1.2853,-1.2933,-1.2823,-1.2823,-1.2844,-1.3025,-1.3045,-1.3061,-1.2919,-1.2922,-1.2924,-1.3023,0,-1.259,-1.2675,-1.2665,-1.2747,-1.2786,-1.2758,-1.28,-1.282,-1.2823,-1.2857,-1.286,-1.2899,-1.2864,-1.2876,-1.291,-1.2916,-1.2969,-1.2908,-1.2959,-1.2961,-1.2956,-1.3078,-1.31,-1.3193,-1.3036,-1.3038,-1.304,0,-1.2715,-1.2743,-1.2828,-1.2845,-1.2861,-1.29,-1.2931,-1.2964,-1.2984,-1.2984,-1.3006,-1.2991,-1.304,-1.2995,-1.3063,-1.3022,-1.3041,-1.3047,-1.3051,-1.3057,-1.3007,-1.3089,-1.3223,-1.3238,-1.306,-1.3058,-1.3057,0,-1.2804,-1.2862,-1.2921,-1.2934,-1.2955,-1.2983,-1.2993,-1.3011,-1.3033,-1.306,-1.3074,-1.3107,-1.3126,-1.3152,-1.3147,-1.3114,-1.3216,-1.317,-1.3219,-1.3219,-1.3244,-1.3242,-1.3384,-1.3253,-1.3253,-1.3253,-1.3252,0,-1.2915,-1.2969,-1.2961,-1.2998,-1.3057,-1.3045,-1.3103,-1.311,-1.3126,-1.3163,-1.314,-1.3176,-1.3166,-1.3201,-1.3197,-1.3254,-1.3262,-1.3264,-1.3263,-1.3267,-1.3268,-1.3282,-1.3276,-1.3256,-1.3255,-1.3255,-1.3254,0,-1.3026,-1.3022,-1.3085,-1.3098,-1.3103,-1.3146,-1.3158,-1.3193,-1.3193,-1.324,-1.3251,-1.3252,-1.3292,-1.3288,-1.3333,-1.333,-1.3402,-1.3392,-1.3395,-1.3394,-1.3443,-1.3439,-1.3601,-1.3621,-1.3475,-1.3477,-1.3478,0,-1.3098,-1.3138,-1.3156,-1.3179,-1.3191,-1.3228,-1.325,-1.3239,-1.3263,-1.3289,-1.3321,-1.3358,-1.3388,-1.3453,-1.3458,-1.3492,-1.3484,-1.3538,-1.3489,-1.3492,-1.3487,-1.3485,-1.3489,-1.3548,-1.355,-1.3551,-1.3553,0,-1.3227,-1.3223,-1.3255,-1.3287,-1.3314,-1.3338,-1.3361,-1.3381,-1.3372,-1.34,-1.344,-1.3463,-1.3508,-1.3546,-1.3578,-1.3589,-1.357,-1.3567,-1.3581,-1.3587,-1.3588,-1.3589,-1.3424,-1.3564,-1.3563,-1.3562,-1.3562,-1.3561,-1.3322,-1.3356,-1.3374,-1.3411,-1.3426,-1.3447,-1.348,-1.3484,-1.3517,-1.3553,-1.3544,-1.359,-1.3609,-1.365,-1.3663,-1.3699,-1.3679,-1.3698,-1.3703,-1.3709,-1.3715,-1.358,-1.3704,-1.3704,-1.3703,-1.3703,-1.3703,0,-1.3451,-1.346,-1.3494,-1.3526,-1.3554,-1.3532,-1.3555,-1.3581,-1.3622,-1.364,-1.3669,-1.3716,-1.3752,-1.3759,-1.3794,-1.3821,-1.3813,-1.383,-1.3829,-1.3832,-1.373,-1.3716,-1.3836,-1.3836,-1.3836,-1.3836,-1.3836,-1.3836,-1.3522,-1.3579,-1.3577,-1.3642,-1.3651,-1.3696,-1.3711,-1.373,-1.3745,-1.3797,-1.3827,-1.3831,-1.3845,-1.3881,-1.3913,-1.3914,-1.3929,-1.395,-1.3948,-1.3853,-1.3839,-1.3827,-1.3813,-1.3953,-1.3953,-1.4047,-1.4048,-1.4049]},{"header":{"parameterUnit":"m.s-1","parameterCategory":1,"la1":30.2991,"la2":30.254,"lo1":-89.0895,"lo2":-89.0444,"dy":0.0017,"dx":0.0017,"nx":28,"ny":28,"refTime":"2024-10-07T09:00:00:Z","depth":0,"parameterNumber":3,"parameterNumberName":"V-component_of_WINDS"},"data":[0,0,0,0,0,0,0,0,0,0,0,0,0,0,0,0,0,0,0,0,0,0,0,0,0,0,0,0,0,0,0,0,0,0,0,0,0,0,0,0,0,0,0,0,0,0,0,0,0,0,0,0,0,0,0,0,0,0,-6.1718,-6.1719,0,-6.1799,-6.18,-6.1801,-6.1708,-6.1705,-6.1701,-6.1698,-6.1776,-6.1781,-6.1786,0,0,0,0,0,0,0,0,0,0,0,0,0,-6.1477,-6.1482,-6.1718,-6.1719,-6.172,-6.1799,-6.18,-6.1801,-6.1709,-6.1704,-6.17,-6.1696,-6.1774,-6.178,-6.1787,0,0,0,0,0,0,0,0,0,0,0,0,0,-6.1572,-6.1484,-6.1718,-6.1684,-6.1681,-6.1799,-6.18,-6.1802,-6.171,-6.1704,-6.1699,-6.1694,-6.1772,-6.178,-6.1788,-6.1942,0,0,-6.1812,-6.1816,0,0,0,0,0,0,0,0,-6.1567,-6.1581,-6.1688,-6.1686,-6.1684,-6.1738,-6.1744,-6.1848,-6.1711,-6.1699,-6.1698,-6.1692,-6.1767,-6.1775,-6.1802,-6.1945,-6.1949,-6.1813,-6.1818,-6.1821,-6.1823,0,0,0,0,0,0,0,-6.1561,-6.1577,-6.175,-6.1689,-6.1687,-6.1662,-6.167,-6.1763,-6.1761,-6.1699,-6.1693,-6.1704,-6.1765,-6.1794,-6.1803,-6.195,-6.1813,-6.182,-6.1825,-6.1828,-6.2222,-6.2228,0,0,0,0,0,0,-6.1559,-6.1572,-6.1747,-6.1752,-6.1612,-6.1671,-6.1679,-6.1726,-6.176,-6.176,-6.1708,-6.1699,-6.1783,-6.1794,-6.1805,-6.1988,-6.1821,-6.1829,-6.1833,-6.2217,-6.2224,-6.223,0,0,0,0,0,0,-6.1554,-6.1575,-6.1744,-6.1661,-6.168,-6.1681,-6.1734,-6.173,-6.176,-6.1767,-6.1765,-6.1739,-6.178,-6.1794,-6.1909,-6.1989,-6.1832,-6.1839,-6.221,-6.2219,-6.2227,-6.2354,0,0,0,0,0,0,-6.1547,-6.1574,-6.1634,-6.1663,-6.1685,-6.1848,-6.1739,-6.1736,-6.1774,-6.1763,-6.1795,-6.1795,-6.1777,-6.1897,-6.1917,-6.1997,-6.1846,-6.2203,-6.2214,-6.2224,-6.2342,-6.2365,-6.2385,0,0,0,0,0,-6.1539,-6.1665,-6.1638,-6.1659,-6.176,-6.1853,-6.1866,-6.1843,-6.1781,-6.184,-6.1845,-6.1794,-6.1977,-6.191,-6.1931,-6.2015,-6.2198,-6.2211,-6.2223,-6.2332,-6.2361,-6.2385,0,0,0,0,0,0,-6.1644,-6.1669,-6.1638,-6.1778,-6.1814,-6.1837,-6.1911,-6.1874,-6.1927,-6.1914,-6.1882,-6.189,-6.2012,-6.2024,-6.1949,-6.2165,-6.2077,-6.2094,-6.2153,-6.218,-6.2201,-6.2195,-6.1852,0,0,0,0,0,-6.1684,-6.1759,-6.1775,-6.1897,-6.1917,-6.1912,-6.1951,-6.193,-6.1966,-6.1981,-6.1993,-6.2029,-6.2093,-6.2137,-6.2197,-6.2343,-6.2348,-6.2411,-6.2433,-6.245,-6.2466,-6.2543,-6.2571,-6.2272,-6.2272,-6.2271,0,0,-6.1766,-6.1789,-6.1838,-6.1919,-6.1945,-6.2021,-6.1925,-6.201,-6.2066,-6.1993,-6.2102,-6.2113,-6.215,-6.2281,-6.2339,-6.2295,-6.255,-6.2467,-6.2481,-6.2487,-6.2559,-6.2588,-6.2613,-6.228,-6.2279,-6.2277,0,0,-6.1956,-6.1981,-6.2085,-6.2113,-6.2154,-6.2149,-6.2174,-6.2203,-6.2208,-6.2318,-6.2264,-6.2329,-6.2442,-6.2471,-6.25,-6.27,-6.2655,-6.272,-6.2833,-6.2909,-6.2932,-6.2953,-6.3024,-6.305,-6.2736,-6.2736,-6.2736,0,-6.2052,-6.2168,-6.2143,-6.2233,-6.2269,-6.2208,-6.2312,-6.2339,-6.2398,-6.2423,-6.2374,-6.2514,-6.2535,-6.2671,-6.272,-6.2746,-6.2772,-6.2717,-6.2931,-6.2952,-6.2971,-6.3038,-6.3065,-6.2744,-6.2743,-6.2742,-6.2741,0,-6.2285,-6.2365,-6.2444,-6.2504,-6.2549,-6.2645,-6.2633,-6.2682,-6.2657,-6.2657,-6.2769,-6.2791,-6.2855,-6.2885,-6.2861,-6.3018,-6.299,-6.2936,-6.2847,-6.3007,-6.307,-6.3096,-6.2755,-6.2752,-6.275,-6.2748,0,0,-6.2543,-6.2588,-6.2617,-6.2643,-6.2684,-6.2745,-6.2837,-6.2901,-6.2943,-6.2985,-6.3061,-6.3158,-6.3109,-6.3142,-6.3121,-6.3187,-6.3344,-6.3125,-6.3125,-6.3165,-6.3517,-6.3558,-6.3588,-6.3314,-6.3319,-6.3323,-6.3514,0,-6.2733,-6.2897,-6.2876,-6.3032,-6.3105,-6.3048,-6.3128,-6.3161,-6.3163,-6.3224,-6.3225,-6.3295,-6.3225,-6.3245,-6.3308,-6.3312,-6.3414,-6.3297,-6.3383,-6.3387,-6.3377,-6.3621,-6.3664,-6.3844,-6.3539,-6.3543,-6.3546,0,-6.2977,-6.303,-6.3194,-6.3222,-6.3252,-6.3326,-6.3382,-6.3442,-6.3477,-6.3474,-6.3511,-6.3478,-6.3569,-6.3478,-6.3602,-6.3523,-6.3557,-6.3564,-6.357,-6.3578,-6.3476,-6.3635,-6.39,-6.3928,-6.3584,-6.3581,-6.3578,0,-6.3149,-6.3261,-6.3373,-6.3397,-6.3434,-6.3486,-6.3503,-6.3534,-6.3573,-6.3622,-6.3647,-6.3705,-6.3737,-6.3782,-6.3764,-6.37,-6.3892,-6.3799,-6.3891,-6.3891,-6.3934,-6.3932,-6.4209,-6.3956,-6.3956,-6.3955,-6.3954,0,-6.3364,-6.3467,-6.3451,-6.352,-6.3632,-6.3607,-6.3718,-6.3728,-6.3755,-6.3824,-6.3776,-6.3841,-6.3814,-6.3876,-6.3863,-6.3968,-6.3982,-6.3981,-6.3976,-6.3986,-6.3986,-6.4007,-6.3995,-6.3962,-6.3961,-6.3959,-6.3958,0,-6.3576,-6.357,-6.3688,-6.3714,-6.3722,-6.3804,-6.3824,-6.3888,-6.3886,-6.3974,-6.3993,-6.399,-6.4061,-6.4048,-6.4126,-6.4116,-6.4248,-6.4227,-6.4237,-6.4232,-6.4324,-6.4316,-6.4625,-6.4664,-6.4386,-6.4389,-6.4391,0,-6.3714,-6.3791,-6.3825,-6.3869,-6.3891,-6.3961,-6.4002,-6.3979,-6.4023,-6.4068,-6.4126,-6.4194,-6.4246,-6.4362,-6.4366,-6.4425,-6.4406,-6.451,-6.4414,-6.4421,-6.4407,-6.4403,-6.441,-6.4529,-6.4532,-6.4535,-6.4537,0,-6.3959,-6.3952,-6.4013,-6.4074,-6.4124,-6.4171,-6.4212,-6.4249,-6.423,-6.4281,-6.4355,-6.4396,-6.4476,-6.4543,-6.4598,-6.4613,-6.4572,-6.4567,-6.4592,-6.4602,-6.4605,-6.4604,-6.4289,-6.456,-6.4558,-6.4556,-6.4555,-6.4554,-6.4138,-6.4204,-6.4239,-6.4308,-6.4337,-6.4377,-6.4438,-6.4445,-6.4506,-6.4571,-6.4553,-6.4636,-6.4667,-6.4738,-6.4759,-6.4822,-6.4783,-6.4818,-6.4827,-6.4837,-6.4848,-6.4595,-6.4832,-6.4831,-6.4831,-6.483,-6.483,0,-6.438,-6.44,-6.4464,-6.4524,-6.4579,-6.4537,-6.458,-6.4628,-6.4702,-6.4736,-6.4789,-6.4873,-6.4938,-6.4947,-6.5007,-6.5056,-6.5039,-6.5073,-6.5069,-6.5073,-6.4879,-6.4852,-6.5086,-6.5086,-6.5086,-6.5086,-6.5086,-6.5085,-6.4513,-6.4623,-6.462,-6.4743,-6.4761,-6.4844,-6.4872,-6.4908,-6.4934,-6.5031,-6.5085,-6.5091,-6.5114,-6.5176,-6.5233,-6.5233,-6.5258,-6.53,-6.5293,-6.5112,-6.5087,-6.5062,-6.5037,-6.5305,-6.5305,-6.5481,-6.5483,-6.5484]}]]